Location: Godzisko
(49.9648°N, 19.4576°E)
Time: 07:18:09
(UTC+00:00)

Gblst 52 Del rocket - Pass Details

Date: 20 April 2021
Orbit: 805 x 1365 km, 51.5° (Epoch: 06 May)

Event Time Altitude Azimuth Distance (km) Brightness Sun altitude
Exits shadow 00:41:47 50° 226° (SW) 1,141 4.4 -23.1°
Maximum altitude 00:43:22 74° 157° (SSE) 925 4.2 -22.9°
Drops below altitude 10° 00:49:01 10° 73° (ENE) 2,444 7.3 -22.4°
Sets 00:51:24 0° 72° (ENE) 3,347 8.1 -22.2°
